Location: Unspecified
(47.2333°N, 39.7000°E)
Time: 19:18:15
(UTC+00:00)

ISS - Pass Details

Date: 09 March 2021
Orbit: 418 x 422 km, 51.6° (Epoch: 12 April)

Event Time Altitude Azimuth Distance (km) Brightness Sun altitude
Exits shadow 02:25:04 28° 287° (WNW) 821 -2.8 -14.6°
Maximum altitude 02:26:41 72° 208° (SSW) 443 -3.8 -14.3°
Drops below altitude 10° 02:30:01 10° 124° (SE) 1,494 -0.3 -13.7°
Sets 02:32:07 0° 122° (ESE) 2,355 0.9 -13.4°
